Location: Unspecified
(40.7945°N, 0.0000°E)
Time: 22:01:05
(UTC+00:00)

Altair - All Passes

Search period start: 21 January 2021 00:00
Search period end: 31 January 2021 00:00
Orbit: 1501 x 1682 km, 47.2° (Epoch: 20 January)

Date Brightness Start Highest point End Pass type
(mag) Time Alt. Az. Time Alt. Az. Time Alt. Az.
21 Jan - 04:12:37 10° SSW 04:21:18 36° SE 04:30:08 10° ENE visible
21 Jan - 06:15:18 10° WSW 06:25:25 89° SSE 06:35:40 10° ENE visible
21 Jan - 08:21:00 10° W 08:31:04 61° N 08:41:05 10° ENE daylight
21 Jan - 10:26:50 10° WNW 10:37:02 74° NNE 10:47:00 10° ESE daylight
21 Jan - 12:32:04 10° WNW 12:41:47 54° SW 12:51:11 10° SSE daylight
21 Jan - 14:40:14 10° W 14:44:49 14° WSW 14:49:20 10° SSW daylight
22 Jan - 03:47:47 10° S 03:56:12 33° SE 04:04:46 10° ENE visible
22 Jan - 05:50:06 10° WSW 06:00:11 85° SSE 06:10:25 10° ENE visible
22 Jan - 07:55:41 10° W 08:05:45 62° N 08:15:48 10° ENE daylight
22 Jan - 10:01:34 10° WNW 10:11:46 71° NNE 10:21:45 10° ESE daylight
22 Jan - 12:06:49 10° WNW 12:16:38 58° SW 12:26:10 10° SE daylight
22 Jan - 14:14:20 10° W 14:19:47 16° WSW 14:25:10 10° SSW daylight
23 Jan - 03:23:00 10° S 03:31:07 30° SE 03:39:22 10° ENE visible
23 Jan - 05:24:56 10° SW 05:34:58 81° SSE 05:45:11 10° ENE visible
23 Jan - 07:30:23 10° W 07:40:26 63° N 07:50:31 10° ENE daylight
23 Jan - 09:36:18 10° WNW 09:46:29 69° NNE 09:56:29 10° E daylight
23 Jan - 11:41:33 10° WNW 11:51:29 63° SW 12:01:07 10° SE daylight
23 Jan - 13:48:35 10° W 13:54:45 19° WSW 14:00:50 10° SSW daylight
24 Jan - 02:58:17 10° S 03:06:02 27° SE 03:13:56 10° ENE visible
24 Jan - 04:59:47 10° SW 05:09:46 77° SSE 05:19:56 10° ENE visible
24 Jan - 07:05:05 10° W 07:15:08 64° N 07:25:15 10° ENE daylight
24 Jan - 09:11:02 10° WNW 09:21:12 67° NNE 09:31:13 10° E daylight
24 Jan - 11:16:17 10° WNW 11:26:19 67° SW 11:36:03 10° SE daylight
24 Jan - 13:22:56 10° W 13:29:43 21° SW 13:36:22 10° SSW daylight
25 Jan - 02:33:37 10° S 02:40:58 24° SE 02:48:27 10° ENE visible
25 Jan - 04:34:40 10° SW 04:44:34 73° SE 04:54:42 10° ENE visible
25 Jan - 06:39:47 10° W 06:49:50 65° NNW 06:59:58 10° ENE visible
25 Jan - 08:45:45 10° WNW 08:55:54 66° NNE 09:05:56 10° E daylight
25 Jan - 10:51:02 10° WNW 11:01:08 71° SW 11:10:58 10° SE daylight
25 Jan - 12:57:23 10° W 13:04:40 23° SW 13:11:49 10° S daylight
26 Jan - 02:09:02 10° S 02:15:55 22° SE 02:22:55 10° E visible
26 Jan - 04:09:34 10° SW 04:19:23 68° SE 04:29:27 10° ENE visible
26 Jan - 06:14:29 10° W 06:24:33 67° NNW 06:34:42 10° ENE visible
26 Jan - 08:20:29 10° WNW 08:30:36 64° N 08:40:38 10° E daylight
26 Jan - 10:25:47 10° WNW 10:35:56 75° SW 10:45:51 10° SE daylight
26 Jan - 12:31:53 10° WNW 12:39:36 26° SW 12:47:10 10° S daylight
27 Jan - 01:44:31 10° SSE 01:50:52 19° SE 01:57:19 10° E visible
27 Jan - 03:44:29 10° SW 03:54:12 64° SE 04:04:11 10° ENE visible
27 Jan - 05:49:12 10° W 05:59:15 69° NNW 06:09:26 10° ENE visible
27 Jan - 07:55:12 10° WNW 08:05:18 63° N 08:15:21 10° E daylight
27 Jan - 10:00:32 10° WNW 10:10:44 80° SSW 10:20:43 10° SE daylight
27 Jan - 12:06:26 10° WNW 12:14:32 29° SW 12:22:28 10° S daylight
28 Jan - 01:20:07 10° SSE 01:25:50 17° ESE 01:31:38 10° E visible
28 Jan - 03:19:26 10° SW 03:29:02 60° SE 03:38:56 10° ENE visible
28 Jan - 05:23:56 10° WSW 05:33:58 71° NNW 05:44:10 10° ENE visible
28 Jan - 07:29:56 10° WNW 07:40:00 62° N 07:50:03 10° E daylight
28 Jan - 09:35:18 10° WNW 09:45:31 84° SSW 09:55:33 10° SE daylight
28 Jan - 11:41:01 10° WNW 11:49:27 31° SW 11:57:43 10° S daylight
29 Jan - 00:55:52 10° SSE 01:00:48 15° ESE 01:05:47 10° E visible
29 Jan - 02:54:24 10° SW 03:03:53 56° SE 03:13:39 10° ENE visible
29 Jan - 04:58:41 10° WSW 05:08:41 73° NNW 05:18:54 10° ENE visible
29 Jan - 07:04:38 10° WNW 07:14:41 62° N 07:24:44 10° E daylight
29 Jan - 09:10:03 10° WNW 09:20:18 88° SSW 09:30:23 10° ESE daylight
29 Jan - 11:15:38 10° WNW 11:24:22 34° SW 11:32:55 10° SSE daylight
30 Jan - 00:31:52 10° SE 00:35:47 13° ESE 00:39:43 10° E visible
30 Jan - 02:29:24 10° SSW 02:38:45 52° SE 02:48:23 10° ENE visible
30 Jan - 04:33:26 10° WSW 04:43:25 75° NNW 04:53:38 10° ENE visible
30 Jan - 06:39:21 10° WNW 06:49:22 61° N 06:59:26 10° E visible
30 Jan - 08:44:49 10° WNW 08:55:04 89° NNE 09:05:11 10° ESE daylight
30 Jan - 10:50:17 10° WNW 10:59:16 38° SW 11:08:04 10° SSE daylight
